Hourly Data Report for October 26, 2015

All times are specified in Local Standard Time (LST). Add 1 hour to adjust for Daylight Saving Time where and when it is observed.

TORONTO INTL A
ONTARIO

43°40'36.000" N
79°37'50.000" W
173.40 m
6158731
71624
YYZ

Download Data

Hourly Data (October 2015)
Hourly Data Report for October 26, 2015
Temp Definition
°C
Dew Point Temp Definition
°C
Rel Hum Definition
%
Wind Dir Definition
10's deg

Wind Spd Definition
km/h
Visibility Definition
km
Stn Press Definition
kPa
Hmdx Definition


Wind Chill Definition


Weather Definition


TIME
00:00 Legend Double Dagger 4.5 2.0 84 36 9 24.1 100.79     LegendNANA
01:00 Legend Double Dagger 3.6 1.3 85 36 2 24.1 100.86     Mostly Cloudy
02:00 Legend Double Dagger 3.8 2.0 88 34 10 24.1 100.91     LegendNANA
03:00 Legend Double Dagger 2.6 0.8 88 25 3 24.1 100.96     LegendNANA
04:00 Legend Double Dagger 3.4 1.6 88 27 7 24.1 101.01     Mostly Cloudy
05:00 Legend Double Dagger 3.7 1.6 86 36 2 24.1 101.04     LegendNANA
06:00 Legend Double Dagger 4.0 1.2 82 5 7 24.1 101.05     LegendNANA
07:00 Legend Double Dagger 4.0 1.4 83 1 9 24.1 101.12     Mostly Cloudy
08:00 Legend Double Dagger 5.2 1.1 75 4 9 24.1 101.18     LegendNANA
09:00 Legend Double Dagger 7.1 1.0 65 9 10 24.1 101.19     LegendNANA
10:00 Legend Double Dagger 8.7 1.6 61 13 7 24.1 101.22     Mainly Clear
11:00 Legend Double Dagger 9.2 1.2 57 15 14 24.1 101.20     LegendNANA
12:00 Legend Double Dagger 9.6 1.5 57 15 11 24.1 101.16     LegendNANA
13:00 Legend Double Dagger 9.3 1.0 56 16 17 24.1 101.10     Mostly Cloudy
14:00 Legend Double Dagger 9.7 1.6 57 15 8 24.1 101.08     LegendNANA
15:00 Legend Double Dagger 9.3 0.8 55 11 14 24.1 101.05     LegendNANA
16:00 Legend Double Dagger 8.6 0.3 56 15 16 24.1 101.06     Mostly Cloudy
17:00 Legend Double Dagger 8.2 0.5 58 15 14 24.1 101.06     LegendNANA
18:00 Legend Double Dagger 7.3 0.5 62 10 10 24.1 101.08     LegendNANA
19:00 Legend Double Dagger 7.2 0.9 64 11 7 24.1 101.12     Clear
20:00 Legend Double Dagger 7.1 0.8 64 13 7 24.1 101.11     LegendNANA
21:00 Legend Double Dagger 6.5 1.2 69 7 3 24.1 101.13     LegendNANA
22:00 Legend Double Dagger 6.5 1.4 70 11 5 24.1 101.14     Mainly Clear
23:00 Legend Double Dagger 6.3 2.6 77 13 7 24.1 101.13     LegendNANA

Notes on Data Quality.

Legend

  • E = Estimated
  • M = Missing
  • NA = Not Available
  • ‡ = Partner data that is not subject to review by the National Climate Archives
Date modified: